This is the latest recevied weather packets stored in our database for station/object K7DC. If no packets are shown the sender has not sent any weather packets the latest 10 day(s).
| Time | Temp. | Humidity | Pressure | Rain* | Wind** | Luminosity | Snow |
|---|---|---|---|---|---|---|---|
| 1777833090 | 27.22° C | 30% | 1013.9 hPa | 0 mm | - | 368 W/m² | - |
| 1777832788 | 27.78° C | 30% | 1014 hPa | 0 mm | - | 409 W/m² | - |
| 1777832486 | 27.78° C | 29% | 1014.3 hPa | 0 mm | - | 480 W/m² | - |
| 1777832183 | 27.78° C | 30% | 1014.5 hPa | 0 mm | - | 399 W/m² | - |
| 1777831880 | 27.78° C | 31% | 1014.4 hPa | 0 mm | - | 354 W/m² | - |
| 1777831577 | 27.22° C | 31% | 1014.6 hPa | 0 mm | - | 341 W/m² | - |
| 1777831275 | 26.67° C | 31% | 1014.5 hPa | 0 mm | - | 361 W/m² | - |
| 1777830971 | 26.67° C | 30% | 1014.6 hPa | 0 mm | - | 503 W/m² | - |
| 1777830668 | 26.67° C | 31% | 1014.5 hPa | 0 mm | - | 492 W/m² | - |
| 1777830365 | 26.67° C | 31% | 1014.7 hPa | 0 mm | - | 398 W/m² | - |
| 1777830062 | 26.11° C | 32% | 1014.5 hPa | 0 mm | - | 381 W/m² | - |
| 1777829756 | 26.11° C | 32% | 1014.7 hPa | 0 mm | - | 403 W/m² | - |
| 1777829453 | 26.11° C | 33% | 1014.5 hPa | 0 mm | - | 413 W/m² | - |
| 1777829151 | 26.11° C | 31% | 1014.8 hPa | 0 mm | - | 435 W/m² | - |
| 1777828848 | 25.56° C | 32% | 1014.8 hPa | 0 mm | - | 410 W/m² | - |
| 1777828544 | 25.56° C | 31% | 1014.8 hPa | 0 mm | - | 315 W/m² | - |
| 1777828242 | 26.11° C | 31% | 1015 hPa | 0 mm | - | 285 W/m² | - |
| 1777827938 | 26.11° C | 30% | 1015.3 hPa | 0 mm | - | 299 W/m² | - |
| 1777827635 | 26.67° C | 30% | 1015.1 hPa | 0 mm | - | 260 W/m² | - |
| 1777827333 | 26.67° C | 29% | 1015.1 hPa | 0 mm | - | 294 W/m² | - |
| 1777827029 | 26.67° C | 29% | 1015.1 hPa | 0 mm | - | 283 W/m² | - |
| 1777826726 | 26.11° C | 30% | 1015.2 hPa | 0 mm | - | 268 W/m² | - |
| 1777826423 | 25.56° C | 30% | 1015.3 hPa | 0 mm | - | 290 W/m² | - |
| 1777826120 | 25.56° C | 31% | 1015.3 hPa | 0 mm | - | 326 W/m² | - |
| 1777825817 | 25° C | 31% | 1015.3 hPa | 0 mm | - | 288 W/m² | - |
* Rain latest hour (hover to see other rain measurements)
** Current wind speed in m/s (hover to see current wind gust speed)